AirNav   Air Wisconsin Up To $57,000 Bonus
 
 1389 users online  

K50 Cook Airfield
Rose Hill, Kansas, USA

GOING TO ROSE HILL?


FAA INFORMATION EFFECTIVE 25 FEBRUARY 2021

Location

FAA Identifier: K50
Lat/Long: 37-33-55.8181N 097-10-28.5521W
37-33.930302N 097-10.475868W
37.5655050,-97.1745978
(estimated)
Elevation: 1345 ft. / 410 m (estimated)
Variation: 07E (1985)
From city: 2 miles W of ROSE HILL, KS
Time zone: UTC -6 (UTC -5 during Daylight Saving Time)
Zip code: 67037

Airport Operations

Airport use: Open to the public
Activation date: 03/1960
Control tower: no
ARTCC: KANSAS CITY CENTER
FSS: WICHITA FLIGHT SERVICE STATION
NOTAMs facility: ICT (NOTAM-D service available)
Attendance: UNATNDD
Wind indicator: lighted
Segmented circle: no
Lights: ACTVT PAPI RWY 17; MIRL RWY 17/35 - 123.5.
Beacon: white-green (lighted land airport)
ACTVT BCN - 123.5.

Airport Communications

CTAF/UNICOM: 122.8
WX AWOS-3PT at 3AU (8 nm NE): 124.175 (316-733-6696)
WX AWOS-3PT at BEC (8 nm N): 119.45 (316-515-7116)
WX ASOS at AAO (11 nm N): 134.025 (316-636-2541)
WX AWOS-3 at 1K1 (13 nm N): 118.3 (316-530-6004)
WX ASOS at ICT (13 nm W): PHONE 316-945-8022
WX AWOS-3 at EGT (18 nm SW): 118.875 (620-326-2470)

Nearby radio navigation aids

VOR radial/distance  VOR name  Freq  Var
ICTr112/22.2WICHITA VORTAC113.8007E

 
NDB name  Hdg/Dist  Freq  Var  ID
PICHE089/13.433204EIC .. -.-.
NEWTON165/30.328106EEWK . .-- -.-

Airport Services

Fuel available: 100LL MOGAS
SELF-SVC FUEL AVBL 24 HRS.
Parking: tiedowns
Airframe service: NONE
Powerplant service: NONE
Bottled oxygen: NONE
Bulk oxygen: NONE

Runway Information

Runway 17/35

Dimensions: 3472 x 40 ft. / 1058 x 12 m
Surface: asphalt, in good condition
Weight bearing capacity: 
Single wheel: 2.0
Runway edge lights: medium intensity
RUNWAY 17  RUNWAY 35
Latitude: 37-34.204117N37-33.632033N
Longitude: 097-10.497317W097-10.495467W
Elevation: 1335.5 ft.1336.0 ft.
Traffic pattern: leftright
Markings: basic, in good conditionbasic, in good condition
Visual slope indicator: 2-light PAPI on left (4.00 degrees glide path)
Obstructions: 24 ft. trees, 330 ft. from runway, 65 ft. right of centerline, 5:1 slope to clear
12 FT TREE 120 FT FM THLD 55 FT RIGHT OF CNTRLN AND 6 FT TREE 180 FT FM THLD 80 FT LEFT OF CNTRLN.
15 ft. road, 400 ft. from runway, 13:1 slope to clear

Runway 1/19

Dimensions: 1600 x 50 ft. / 488 x 15 m
Surface: turf, in good condition
Runway edge markings: MKD WITH ORANGE CONES.
RUNWAY 1  RUNWAY 19
Latitude: 37-33.833000N37-34.080667N
Longitude: 097-10.488000W097-10.374667W
Elevation: 1340.0 ft.1325.0 ft.
Traffic pattern: leftleft
Obstructions: 15 ft. road, 230 ft. from runway, 15:1 slope to clear63 ft. tree, 655 ft. from runway, 10:1 slope to clear

Airport Ownership and Management from official FAA records

Ownership: Privately-owned
Owner: CROSSWIND AVAITION INC.
P.O. BOX 574
ROSE HILL, KS 67133
Phone 316-706-6131
Manager: STEVE LOGUE
6841 S.143RD
DERBY, KS 67037
Phone 316-706-6131
CO-MANAGER PHONE 316-650-6581.

Airport Operational Statistics

Aircraft based on the field: 82
Single engine airplanes: 77
Multi engine airplanes: 3
Ultralights: 2
    
Aircraft operations: avg 51/day *
95% local general aviation
5% transient general aviation
* for 12-month period ending 19 July 2019

Additional Remarks

FOR CD CTC WICHITA APCH AT 316-350-1520.
RWY 17 CLNC SLOPE 21:1 TO 190 FT DSPLCD THLD.

Instrument Procedures

There are no published instrument procedures at K50.

Some nearby airports with instrument procedures:

KIAB - Mc Connell Air Force Base (6 nm NW)
KCEA - Cessna Aircraft Field Airport (6 nm NW)
3AU - Augusta Municipal Airport (8 nm NE)
KBEC - Beech Factory Airport (8 nm N)
KAAO - Colonel James Jabara Airport (11 nm N)
1K1 - Lloyd Stearman Field Airport (13 nm N)
KICT - Wichita Dwight D Eisenhower NTL Airport (13 nm W)
KEGT - Wellington Municipal Airport (18 nm SW)
 
Loc | Ops | Rwys | IFR | FBO | Links
Com | Nav | Svcs | Stats | Notes
Area around K50 (Cook Airfield)
 
Road maps at: MapQuest Bing Google
 
Aerial photo
WARNING: Photo may not be current or correct
Aerial photo of K50 (Cook Airfield)
Taken in 2017
looking south.

Do you have a better or more recent aerial photo of Cook Airfield that you would like to share? If so, please send us your photo.

 
Sectional chart

 
Airport distance calculator
Flying to Cook Airfield? Find the distance to fly.

From to K50

Sunrise and sunset
Times for 03-Mar-2021
 Local
(UTC-6)
 Zulu
(UTC)
Morning civil twilight06:3212:32
Sunrise06:5812:58
Sunset18:2300:23
Evening civil twilight18:4900:49

Current date and time
Zulu (UTC)  03-Mar-2021 22:50:48
Local (UTC-6)  03-Mar-2021 16:50:48
 
METAR
KIAB 
5nm NW 
032156Z AUTO 22013G18KT 10SM CLR 21/M07 A2999 RMK AO2 SLP158 T02051070 $
K3AU 
8nm NE 
032235Z AUTO 20010KT 10SM CLR 20/M04 A3001 RMK AO2
KBEC 
8nm N 
032235Z AUTO 21010G14KT 10SM CLR 20/M04 A3000 RMK AO2 T02011042
KAAO 
11nm N 
032154Z AUTO 21010G18KT 10SM CLR 21/M07 A3000 RMK AO2 SLP157 T02061067
K1K1 
13nm N 
032235Z AUTO 19008G18KT 10SM CLR 20/M05 A3001 RMK AO2 T01981055
KICT 
13nm W 
032153Z 19012KT 10SM CLR 21/M04 A2999 RMK AO2 SLP157 T02061039
TAF
KIAB 
5nm NW 
031800Z 0318/0424 24010G15KT 9999 SKC QNH2999INS BECMG 0323/0324 16006KT 9999 SKC QNH2999INS BECMG 0415/0416 15012G22KT 9999 SKC QNH2996INS TX20/0321Z TN06/0412Z
KICT 
13nm W 
031720Z 0318/0418 19007KT P6SM SKC
NOTAMs
Click for the latest NOTAMs
NOTAMs are issued by the DoD/FAA and will open in a separate window not controlled by AirNav.

 

 
 

FBO, Fuel Providers, and Aircraft Ground Support

  
 Business Name 
 
 Contact 
 
 Services / Description 
 
Fuel Prices
 
Comments
  
Crosswinds Aviation, Inc. 316-706-6131
316-650-6581
[web site]
[email]
Airport management, Aviation fuel, Aircraft parking (ramp or tiedown), Hangars, Hangar leasing / sales, Skydiving, Aircraft management, Flying club, Rentalcar_arrangements, ...

More info about Crosswinds Aviation, Inc.
independent
100LL Mogas
SS $3.99 $2.79 
GUARANTEED
 
   write
SS=Self service
Update Fuel Prices
 

Would you like to see your business listed on this page?

 If your business provides an interesting product or service to pilots, flight crews, aircraft, or users of the Cook Airfield, you should consider listing it here.  To start the listing process, click on the button below
 
Add a business
 

Other Pages about Cook Airfield

cookairfield.com
 
Update a link
 
Copyright © AirNav, LLC. All rights reserved. Privacy Policy  Contact